Melbourne Airport, Australia

12:15 AM AEST on May 24, 2017 (GMT +1000)
Melbourne International

Weather History for YMML - May, 2013

Change the Weather History Date:

Friday, May 31, 2013

  Actual Average Record
Temperature  
Mean Temperature 58 °F -  
Max Temperature 63 °F 55 °F 64 °F (2014)
Min Temperature 52 °F 42 °F 33 °F (2016)
Degree Days  
Heating Degree Days 8    
Growing Degree Days 8 (Base 50)    
Moisture  
Dew Point 55 °F    
Average Humidity 85    
Maximum Humidity 100    
Minimum Humidity 69    
Precipitation  
Precipitation 2.76 in 0.05 in - ()
Sea Level Pressure  
Sea Level Pressure 30.13 in    
Wind  
Wind Speed 15 mph ()    
Max Wind Speed 29 mph    
Max Gust Speed 33 mph    
Visibility 6.2 miles    
Events Rain , Thunderstorm    
Averages and records for this station are not official NWS values.
T = Trace of Precipitation, MM = Missing Value Source: Averaged Metar Reports

Daily Weather History Graph

Daily Weather History Graph

Search for Another Location

Airport or City:

Trip Planner

Search our weather history database for the weather conditions in past years. The results will help you decide how hot, cold, wet, or windy it might be!

Date:

Astronomy

May. 31, 2013 Rise Set
Actual Time 7:25 AM AEST 5:10 PM AEST
Civil Twilight 6:56 AM AEST 5:39 PM AEST
Nautical Twilight 6:24 AM AEST 6:11 PM AEST
Astronomical Twilight 5:52 AM AEST 6:43 PM AEST
Moon No Moon Rise 12:09 PM AEST (5/31)
Length of Visible Light 10h 42m
Length of Day
9h 44m
Waning Gibbous, 58% of the Moon is Illuminated
May 31
Waning Gibbous
Jun 1
Last Quarter
Jun 9
New
Jun 17
First Quarter
Jun 23
Full

Hourly Weather History & Observations

Time (AEST) Temp. Dew Point Humidity Pressure Visibility Wind Dir Wind Speed Gust Speed Precip Events Conditions
12:00 AM 53 °F 51 °F 88% 30.20 in 19 mi North 8.1 mph - -   Partly Cloudy
12:00 AM 53.6 °F 50.0 °F 88% 30.18 in 6.2 mi North 8.1 mph - N/A   Scattered Clouds
12:30 AM 55.4 °F 51.8 °F 88% 30.18 in 6.2 mi North 10.4 mph - N/A   Mostly Cloudy
1:00 AM 56 °F 53 °F 88% 30.19 in - North 13.8 mph - -  
1:00 AM 55.4 °F 53.6 °F 94% 30.18 in 6.2 mi North 13.8 mph - N/A   Scattered Clouds
1:30 AM 55.4 °F 53.6 °F 94% 30.18 in 6.2 mi NNE 10.4 mph - N/A   Scattered Clouds
2:00 AM 57.2 °F 53.6 °F 88% 30.18 in 6.2 mi North 13.8 mph - N/A   Scattered Clouds
2:30 AM 57.2 °F 53.6 °F 88% 30.15 in 6.2 mi North 15.0 mph - N/A   Partly Cloudy
3:00 AM 57 °F 53 °F 81% 30.17 in 19 mi North 19.6 mph - -   Partly Cloudy
3:00 AM 57.2 °F 53.6 °F 88% 30.15 in 6.2 mi North 19.6 mph 33.4 mph N/A   Partly Cloudy
3:30 AM 57.2 °F 53.6 °F 88% 30.15 in 6.2 mi North 17.3 mph - N/A   Partly Cloudy
4:00 AM 57 °F 53 °F 80% 30.17 in - North 17.3 mph - -  
4:00 AM 57.2 °F 51.8 °F 82% 30.15 in 6.2 mi North 17.3 mph - N/A   Partly Cloudy
4:30 AM 57.2 °F 51.8 °F 82% 30.15 in 6.2 mi North 20.7 mph - N/A   Partly Cloudy
5:00 AM 57.2 °F 53.6 °F 88% 30.15 in 6.2 mi North 21.9 mph - N/A   Partly Cloudy
5:30 AM 57.2 °F 53.6 °F 88% 30.15 in 6.2 mi North 18.4 mph - N/A   Partly Cloudy
6:00 AM 56 °F 53 °F 86% 30.17 in 19 mi North 17.3 mph - -   Partly Cloudy
6:00 AM 55.4 °F 53.6 °F 94% 30.15 in 6.2 mi North 17.3 mph - N/A   Partly Cloudy
6:30 AM 57.2 °F 53.6 °F 88% 30.15 in 6.2 mi North 17.3 mph - N/A   Partly Cloudy
7:00 AM 56 °F 53 °F 86% 30.17 in - North 13.8 mph - -  
7:00 AM 57.2 °F 53.6 °F 88% 30.15 in 6.2 mi North 13.8 mph - N/A   Partly Cloudy
7:30 AM 57.2 °F 53.6 °F 88% 30.18 in 6.2 mi North 16.1 mph - N/A   Partly Cloudy
8:00 AM 57.2 °F 53.6 °F 88% 30.18 in 6.2 mi North 12.7 mph - N/A   Partly Cloudy
8:30 AM 59.0 °F 53.6 °F 82% 30.18 in 6.2 mi North 15.0 mph - N/A   Scattered Clouds
9:00 AM 60 °F 54 °F 76% 30.18 in 25 mi North 24.2 mph - -   Partly Cloudy
9:00 AM 59.0 °F 55.4 °F 88% 30.15 in 6.2 mi North 24.2 mph - N/A   Scattered Clouds
9:30 AM 60.8 °F 55.4 °F 82% 30.15 in 6.2 mi North 25.3 mph - N/A   Scattered Clouds
10:00 AM 60 °F 55 °F 78% 30.17 in - North 26.5 mph - -  
10:00 AM 60.8 °F 55.4 °F 82% 30.15 in 6.2 mi North 26.5 mph - N/A   Mostly Cloudy
10:30 AM 60.8 °F 55.4 °F 82% 30.15 in 6.2 mi North 26.5 mph - N/A   Mostly Cloudy
11:00 AM 60.8 °F 55.4 °F 82% 30.15 in 6.2 mi North 28.8 mph - N/A   Mostly Cloudy
11:30 AM 60.8 °F 55.4 °F 82% 30.12 in 6.2 mi North 27.6 mph - N/A   Mostly Cloudy
12:00 PM 62 °F 55 °F 71% 30.14 in 25 mi North 28.8 mph - -   Partly Cloudy
12:00 PM 62.6 °F 55.4 °F 77% 30.12 in 6.2 mi North 28.8 mph - N/A   Mostly Cloudy
12:30 PM 62.6 °F 55.4 °F 77% 30.12 in 6.2 mi North 25.3 mph - N/A   Mostly Cloudy
1:00 PM 62 °F 55 °F 71% 30.12 in - North 26.5 mph - -  
1:00 PM 62.6 °F 55.4 °F 77% 30.09 in 6.2 mi North 26.5 mph - N/A   Mostly Cloudy
1:30 PM 62.6 °F 53.6 °F 72% 30.09 in 6.2 mi North 24.2 mph - N/A   Mostly Cloudy
2:00 PM 62.6 °F 55.4 °F 77% 30.09 in 6.2 mi North 24.2 mph - N/A   Mostly Cloudy
2:30 PM 62.6 °F 55.4 °F 77% 30.09 in 6.2 mi North 21.9 mph - N/A   Mostly Cloudy
2:45 PM 62.6 °F 55.4 °F 77% 30.09 in 6.2 mi North 19.6 mph 31.1 mph N/A   Mostly Cloudy
3:00 PM 63 °F 56 °F 70% 30.09 in 25 mi North 19.6 mph - -   Partly Cloudy
3:00 PM 62.6 °F 55.4 °F 77% 30.09 in 6.2 mi North 19.6 mph - N/A   Mostly Cloudy
3:30 PM 62.6 °F 55.4 °F 77% 30.09 in 6.2 mi North 19.6 mph - N/A   Mostly Cloudy
4:00 PM 63 °F 55 °F 69% 30.13 in - North 10.4 mph - -  
4:00 PM 62.6 °F 55.4 °F 77% 30.12 in 6.2 mi North 10.4 mph - N/A   Mostly Cloudy
4:30 PM 62.6 °F 55.4 °F 77% 30.12 in 6.2 mi North 12.7 mph - N/A   Mostly Cloudy
5:00 PM 62.6 °F 55.4 °F 77% 30.09 in 6.2 mi North 9.2 mph - N/A Rain Light Rain Showers
5:30 PM 60.8 °F 57.2 °F 88% 30.09 in 6.2 mi NNE 11.5 mph - N/A Rain Light Rain Showers
6:00 PM 61 °F 56 °F 80% 30.12 in 16 mi North 8.1 mph - - Rain Light Rain
6:00 PM 60.8 °F 57.2 °F 88% 30.12 in 6.2 mi North 8.1 mph - N/A Rain Light Rain
6:30 PM 60.8 °F 57.2 °F 88% 30.09 in 6.2 mi North 10.4 mph - N/A Rain Light Rain
7:00 PM 60 °F 58 °F 89% 30.11 in - North 13.8 mph - -  
7:00 PM 60.8 °F 57.2 °F 88% 30.09 in 5.0 mi North 13.8 mph - N/A Rain Rain
7:30 PM 60.8 °F 57.2 °F 88% 30.09 in 6.2 mi North 10.4 mph - N/A Rain Light Rain
8:00 PM 60.8 °F 57.2 °F 88% 30.09 in 6.2 mi North 8.1 mph - N/A Rain Light Rain
8:46 PM 60.8 °F 57.2 °F 88% 30.09 in 2.5 mi North 10.4 mph - N/A Rain Heavy Rain
9:00 PM 60 °F 58 °F 92% 30.09 in 2 mi NNW 8.1 mph - - Rain Rain
9:00 PM 60.8 °F 59.0 °F 94% 30.06 in 2.5 mi NNW 8.1 mph - N/A Rain Rain
9:28 PM 57.2 °F 53.6 °F 88% 30.09 in 0.2 mi West 13.8 mph - N/A Rain Heavy Rain
9:30 PM 57.2 °F 53.6 °F 88% 30.06 in 0.2 mi WNW 15.0 mph - N/A Rain Heavy Rain
10:00 PM 58 °F 56 °F 90% 30.09 in - NNW 12.7 mph - -  
10:00 PM 57.2 °F 55.4 °F 94% 30.09 in 0.9 mi NNW 12.7 mph - N/A Rain Heavy Rain Showers
10:30 PM 57.2 °F 55.4 °F 94% 30.06 in 1.6 mi NNW 10.4 mph - N/A Rain Rain Showers
10:36 PM 57.2 °F 55.4 °F 94% 30.06 in 1.6 mi NW 9.2 mph - N/A Rain , Thunderstorm Thunderstorms and Rain
11:00 PM 55.4 °F 55.4 °F 100% 30.06 in 3.1 mi North 12.7 mph - N/A Rain Rain Showers
11:30 PM 55.4 °F 55.4 °F 100% 30.04 in 2.8 mi NNE 10.4 mph - N/A Rain , Thunderstorm Thunderstorms and Rain